Waarnemingen

Advertentie
Mijn weer
Görlitz, Duitsland (10499): temperatuur & dauwpunt: 13.07.2018 15:00:00 - 19.07.2018 15:00:00 (CEST)Görlitz, Duitsland (10499): temperatuur 5cm & temperatuur -5cm: 13.07.2018 15:00:00 - 19.07.2018 15:00:00 (CEST)Görlitz, Duitsland (10499): temperatuur -20cm & temperatuur -100cm: 13.07.2018 15:00:00 - 19.07.2018 15:00:00 (CEST)Görlitz, Duitsland (10499): windsnelheid & windstoten: 13.07.2018 15:00:00 - 19.07.2018 15:00:00 (CEST)Görlitz, Duitsland (10499): windrichting: 13.07.2018 15:00:00 - 19.07.2018 15:00:00 (CEST)Görlitz, Duitsland (10499): luchtdruk: 13.07.2018 15:00:00 - 19.07.2018 15:00:00 (CEST)Görlitz, Duitsland (10499): zicht: 13.07.2018 15:00:00 - 19.07.2018 15:00:00 (CEST)Görlitz, Duitsland (10499): Zonneschijnduur: 13.07.2018 15:00:00 - 19.07.2018 15:00:00 (CEST)Görlitz, Duitsland (10499): neerslag: 13.07.2018 15:00:00 - 19.07.2018 15:00:00 (CEST)
Datum & Tijd tt [°C] td [°C] tt 5cm [°C] tt -5cm [°C] tt -20cm [°C] tt -100cm [°C] ff [km/u] ff [kn] fx [km/u] fx [kn] dd ppp [hPa] vv [km] sd [min] rr [mm]
19.07.2018 15:00:00 18,3 17,0 19,4 22,0 21,0 18,5 14 8 33 18 NW 1016,4 12 0 0,0
19.07.2018 14:00:00 19,7 15,1 19,6 22,5 20,8 18,5 14 8 34 18 NW 1015,9 25 0 0,0
19.07.2018 13:00:00 21,1 14,6 22,5 22,7 20,5 18,5 15 8 40 21 NW 1015,4 45 0 0,0
19.07.2018 12:00:00 21,8 14,0 25,0 22,4 20,3 18,5 21 11 39 21 NW 1014,9 35 22 0,0
19.07.2018 11:00:00 21,6 13,9 26,5 21,4 20,0 18,5 20 11 35 19 WNW 1015,1 30 59 0,0
19.07.2018 10:00:00 20,2 13,7 25,5 20,3 20,0 18,5 15 8 30 16 WNW 1015,2 30 59 0,0
19.07.2018 09:00:00 19,1 13,2 22,9 19,5 20,0 18,5 16 9 26 14 W 1015,2 30 59 0,0
19.07.2018 08:00:00 17,9 12,7 19,6 19,1 20,1 18,5 11 6 24 13 WNW 1015,4 35 18 0,0
19.07.2018 07:00:00 16,7 11,9 17,0 19,0 20,3 18,5 13 7 23 13 WNW 1015,5 42 9 0,0
19.07.2018 06:00:00 16,6 11,8 16,3 19,2 20,4 18,5 9 5 19 11 WNW 1015,2 28 0 0,0
19.07.2018 05:00:00 16,4 11,6 15,0 19,5 20,6 18,5 9 5 16 9 WNW 1015,2 25 0 0,0
19.07.2018 04:00:00 17,7 12,0 16,4 19,8 20,7 18,5 9 5 16 9 WNW 1014,9 35 0 0,0
19.07.2018 03:00:00 18,0 11,8 16,9 20,1 20,9 18,5 7 4 12 7 WNW 1015,0 35 0 0,0
19.07.2018 02:00:00 18,5 11,7 16,7 20,3 21,0 18,5 6 3 14 8 WNW 1015,0 35 0 0,0
19.07.2018 01:00:00 19,3 11,8 17,8 20,6 21,1 18,5 6 3 15 8 WNW 1014,8 35 0 0,0
19.07.2018 00:00:00 19,9 11,8 19,1 20,8 21,3 18,5 8 5 15 8 N 1014,8 40 0 0,0
18.07.2018 23:00:00 20,2 11,4 18,2 21,2 21,4 18,5 9 5 17 9 NW 1014,3 45 0 0,0
18.07.2018 22:00:00 21,2 11,4 18,9 21,7 21,4 18,5 8 4 19 10 NW 1014,1 45 0 0,0
18.07.2018 21:00:00 22,0 13,4 20,1 22,2 21,4 18,5 8 4 19 10 NNW 1013,8 45 0 0,0
18.07.2018 20:00:00 24,2 11,5 23,5 22,5 21,3 18,5 12 6 32 17 NNW 1013,2 45 0 0,0
18.07.2018 19:00:00 24,9 11,1 24,9 22,5 21,2 18,5 16 8 29 16 NNW 1012,5 45 1 0,0
18.07.2018 18:00:00 24,5 11,5 25,4 22,3 21,1 18,5 15 8 33 18 NNW 1012,8 45 0 0,0
18.07.2018 17:00:00 24,3 12,0 25,4 22,0 21,0 18,5 20 11 38 20 NNW 1013,0 40 0 0,0
18.07.2018 16:00:00 24,1 12,3 26,0 21,4 20,9 18,5 16 9 35 19 NW 1013,1 35 2 0,0
18.07.2018 15:00:00 23,0 13,6 25,1 21,1 20,9 18,5 15 8 32 17 NW 1013,3 35 2 0,0
18.07.2018 14:00:00 21,1 14,6 19,5 21,0 20,9 18,5 19 10 36 19 NW 1013,6 30 0 0,0
18.07.2018 13:00:00 19,5 16,5 19,7 20,9 21,0 18,5 10 5 34 18 NNW 1013,6 25 0 0,9
18.07.2018 12:00:00 20,6 14,9 22,0 20,8 21,0 18,5 16 9 34 18 NW 1013,2 30 0 0,0
18.07.2018 11:00:00 19,6 16,2 19,8 20,7 21,0 18,5 15 8 29 16 WNW 1013,1 27 0 0,0
18.07.2018 10:00:00 18,6 16,4 18,5 20,6 21,1 18,5 11 6 27 14 NW 1013,1 23 0 -
18.07.2018 09:00:00 17,9 16,0 17,5 20,6 21,2 18,5 11 6 26 14 NW 1012,6 22 0 0,3
18.07.2018 08:00:00 18,8 15,1 18,5 20,7 21,3 18,5 14 8 26 14 NW 1011,9 24 0 0,0
18.07.2018 07:00:00 18,8 15,0 18,9 20,7 21,5 18,5 10 5 21 11 WNW 1011,5 27 0 0,0
18.07.2018 06:00:00 18,5 14,7 18,0 20,9 21,6 18,5 10 6 20 11 WNW 1011,2 26 0 0,0
18.07.2018 05:00:00 18,7 14,8 18,2 21,0 21,8 18,5 13 7 22 12 WNW 1010,9 25 0 0,0
18.07.2018 04:00:00 18,8 15,1 18,2 21,2 21,9 18,4 10 6 21 11 WNW 1010,7 25 0 0,0
18.07.2018 03:00:00 19,1 15,1 18,5 21,5 22,1 18,4 12 6 21 11 WNW 1010,5 25 0 0,0
18.07.2018 02:00:00 19,2 15,4 18,7 21,7 22,2 18,4 13 7 22 12 WNW 1010,7 30 0 0,0
18.07.2018 01:00:00 19,2 15,4 18,7 22,0 22,4 18,4 9 5 20 11 NW 1010,8 30 0 0,0
18.07.2018 00:00:00 19,3 15,8 18,8 22,3 22,6 18,4 8 5 16 9 NW 1010,7 30 0 0,0
17.07.2018 23:00:00 19,6 15,4 18,8 22,6 22,7 18,4 8 4 22 12 NW 1010,8 40 0 0,0
17.07.2018 22:00:00 19,9 15,6 18,9 23,1 22,9 18,4 8 4 25 13 NW 1010,8 40 0 0,0
17.07.2018 21:00:00 20,6 15,2 20,2 23,6 22,9 18,4 11 6 22 12 N 1010,4 40 0 0,0
17.07.2018 20:00:00 21,2 15,0 20,8 24,1 23,0 18,4 14 8 32 17 N 1010,2 45 0 0,0
17.07.2018 19:00:00 22,5 13,4 22,7 24,5 22,9 18,3 16 9 26 14 N 1010,1 50 0 0,0
17.07.2018 18:00:00 22,9 13,0 23,3 24,9 22,8 18,4 18 10 33 18 N 1009,9 55 0 0,0
17.07.2018 17:00:00 24,1 14,2 24,9 25,2 22,5 18,4 24 13 42 23 N 1009,7 55 0 0,0
17.07.2018 16:00:00 25,7 11,9 27,7 25,2 22,2 18,3 19 10 36 20 NW 1009,2 50 2 0,0
17.07.2018 15:00:00 25,5 11,9 28,5 24,6 21,9 18,3 19 10 37 20 NW 1009,5 55 56 0,0
17.07.2018 14:00:00 25,5 13,7 30,8 23,4 21,7 18,3 17 9 30 16 WNW 1010,0 50 47 0,0
17.07.2018 13:00:00 23,3 12,4 27,2 22,5 21,6 18,3 13 7 31 17 NW 1010,6 45 17 0,0
17.07.2018 12:00:00 22,1 14,5 26,4 21,8 21,6 18,3 17 9 26 14 WNW 1010,8 40 15 0,0
17.07.2018 11:00:00 19,6 15,4 20,1 21,6 21,7 18,2 9 5 16 9 W 1011,1 40 0 0,0
17.07.2018 10:00:00 18,8 15,7 19,6 21,3 21,8 18,2 4 2 13 7 W 1011,3 28 0 0,0
17.07.2018 09:00:00 17,5 16,1 17,8 21,1 21,9 18,2 6 4 13 7 WZW 1011,5 22 0 0,4
17.07.2018 08:00:00 17,5 15,4 17,2 21,1 22,1 18,2 7 4 11 6 W 1011,4 30 0 0,0
17.07.2018 07:00:00 17,5 14,5 17,7 21,2 22,3 18,2 8 4 12 7 WNW 1011,4 40 0 0,0
17.07.2018 06:00:00 16,2 13,4 16,3 21,3 22,6 18,2 4 2 13 7 WNW 1011,5 40 0 0,0
17.07.2018 05:00:00 15,5 12,6 14,8 21,7 22,8 18,2 9 5 10 6 WZW 1011,1 25 0 0,0
17.07.2018 04:00:00 15,7 13,1 14,0 22,1 23,1 18,2 6 3 9 5 W 1011,1 30 0 0,0
17.07.2018 03:00:00 16,2 13,4 14,7 22,6 23,4 18,1 6 3 8 4 W 1011,5 30 0 0,0
17.07.2018 02:00:00 16,4 13,3 14,9 23,1 23,7 18,1 5 3 9 5 W 1011,3 35 0 0,0
17.07.2018 01:00:00 17,8 13,2 15,4 23,7 23,9 18,1 5 3 7 4 WNW 1011,2 35 0 0,0
17.07.2018 00:00:00 19,4 13,9 17,3 24,3 24,2 18,1 3 2 11 6 NW 1011,6 50 0 0,0
16.07.2018 23:00:00 19,3 13,2 17,5 25,1 24,4 18,1 10 5 21 11 NNO 1011,4 55 0 0,0
16.07.2018 22:00:00 21,2 10,3 19,4 26,0 24,5 18,1 6 4 12 6 WNW 1010,8 55 0 0,0
16.07.2018 21:00:00 23,2 9,9 21,1 26,9 24,5 18,1 8 4 14 8 WNW 1010,3 60 55 0,0
16.07.2018 20:00:00 25,7 9,5 25,4 27,7 24,4 18,1 10 5 19 10 WNW 1010,1 60 60 0,0
16.07.2018 19:00:00 26,9 8,6 28,0 28,1 24,2 18,1 12 7 21 11 NNW 1010,1 60 60 0,0
16.07.2018 18:00:00 26,6 8,3 28,8 28,5 23,8 18,1 7 4 18 10 NNW 1010,4 65 45 0,0
16.07.2018 17:00:00 26,0 8,7 28,4 28,6 23,4 18,1 14 7 24 13 NW 1010,6 70 56 0,0
16.07.2018 16:00:00 26,9 8,7 33,1 28,2 22,8 18,1 11 6 26 14 NW 1010,8 70 60 0,0
16.07.2018 15:00:00 26,8 9,3 33,5 27,5 22,3 18,1 11 6 23 12 NNW 1011,4 70 60 0,0
16.07.2018 14:00:00 25,9 9,5 30,2 26,5 21,7 18,0 13 7 24 13 NNW 1012,4 65 59 0,0
16.07.2018 13:00:00 25,3 7,6 30,4 25,3 21,2 18,0 7 4 23 12 WNW 1013,0 65 60 0,0
16.07.2018 12:00:00 24,6 10,4 30,4 23,9 20,9 18,0 11 6 22 12 N 1013,5 65 60 0,0
16.07.2018 11:00:00 24,0 10,6 28,8 22,4 20,6 18,0 10 5 21 12 N 1013,8 65 60 0,0
16.07.2018 10:00:00 21,6 13,1 27,7 21,1 20,5 18,0 9 5 16 9 NW 1014,2 65 60 0,0
16.07.2018 09:00:00 19,9 12,4 25,7 20,0 20,6 18,0 4 2 10 6 NW 1014,5 60 60 0,0
16.07.2018 08:00:00 17,8 12,0 22,0 19,4 20,8 18,0 4 2 6 4 WNW 1014,7 65 60 0,0
16.07.2018 07:00:00 14,6 11,4 16,3 19,2 21,1 18,0 4 2 5 3 ZW 1015,1 60 60 0,0
16.07.2018 06:00:00 12,7 10,5 11,5 19,5 21,4 18,0 0 0 10 5 N 1015,5 55 28 0,0
16.07.2018 05:00:00 11,8 9,8 10,0 19,9 21,7 18,0 4 2 5 3 W 1015,7 30 0 0,0
16.07.2018 04:00:00 12,5 10,2 10,6 20,5 22,0 17,9 4 2 9 5 ZW 1015,9 30 0 0,0
16.07.2018 03:00:00 14,3 10,0 11,2 21,0 22,3 17,9 6 3 9 5 WZW 1016,0 40 0 0,0
16.07.2018 02:00:00 14,7 10,7 12,4 21,6 22,6 17,9 5 3 9 5 ZW 1015,8 40 0 0,0
16.07.2018 01:00:00 14,7 10,7 12,0 22,3 22,9 17,9 5 3 7 4 W 1015,9 40 0 0,0
16.07.2018 00:00:00 16,7 10,9 13,7 23,1 23,2 17,9 3 2 6 3 WZW 1015,7 45 0 0,0
15.07.2018 23:00:00 16,5 11,2 14,0 24,0 23,4 17,9 5 3 11 6 W 1015,6 50 0 0,0
15.07.2018 22:00:00 20,0 9,8 16,7 24,9 23,5 17,9 6 3 11 6 NNW 1015,1 55 0 0,0
15.07.2018 21:00:00 21,3 10,1 19,9 25,9 23,5 17,9 11 6 18 10 N 1014,4 60 60 0,0
15.07.2018 20:00:00 24,0 10,2 23,7 26,7 23,4 17,9 14 8 22 12 N 1013,9 55 60 0,0
15.07.2018 19:00:00 24,4 11,7 26,1 27,3 23,1 17,9 12 7 21 11 NNW 1013,9 50 60 0,0
15.07.2018 18:00:00 25,0 11,3 28,1 27,4 22,7 17,9 14 8 29 15 NNW 1014,1 50 60 0,0
15.07.2018 17:00:00 24,8 12,0 29,1 27,3 22,3 17,9 14 7 26 14 NNW 1014,4 45 60 0,0
15.07.2018 16:00:00 24,6 12,0 28,4 26,7 21,8 17,9 12 7 27 15 N 1015,0 45 54 0,0
15.07.2018 15:00:00 24,1 12,7 28,2 26,3 21,3 17,9 11 6 27 14 N 1015,5 40 35 0,0
15.07.2018 14:00:00 23,8 12,3 27,7 25,5 20,7 17,9 11 6 28 15 N 1016,0 40 56 0,0
15.07.2018 13:00:00 23,4 12,5 30,3 24,3 20,2 17,9 8 4 19 10 NNW 1016,6 40 53 0,0
15.07.2018 12:00:00 23,6 13,2 28,7 22,8 19,8 17,9 6 3 19 11 NNW 1017,0 30 60 0,0
15.07.2018 11:00:00 20,2 12,1 24,9 21,4 19,6 17,9 7 4 13 7 NW 1017,5 28 49 0,0
15.07.2018 10:00:00 19,7 13,3 26,9 20,1 19,5 17,9 6 4 11 6 NNW 1017,6 25 60 0,0
15.07.2018 09:00:00 18,1 13,6 22,7 19,0 19,5 17,9 5 3 14 7 NNO 1018,0 20 60 0,0
15.07.2018 08:00:00 16,9 13,2 18,7 18,4 19,7 17,9 9 5 13 7 NNO 1017,9 20 51 0,0
15.07.2018 07:00:00 14,7 13,0 16,1 18,3 19,9 17,9 6 3 8 5 N 1018,0 18 27 0,0
15.07.2018 06:00:00 12,7 11,8 12,2 18,4 20,2 17,9 4 2 6 3 WZW 1018,1 30 0 0,0
15.07.2018 05:00:00 12,8 11,8 11,2 18,8 20,5 17,9 5 3 6 4 W 1017,9 27 0 0,0
15.07.2018 04:00:00 13,6 12,2 11,4 19,3 20,8 17,9 4 2 8 4 W 1017,9 30 0 0,0
15.07.2018 03:00:00 14,4 12,2 11,4 19,8 21,1 17,9 5 3 10 5 WNW 1018,0 35 0 0,0
15.07.2018 02:00:00 15,4 11,9 12,6 20,3 21,3 17,9 6 3 12 6 WNW 1018,0 35 0 0,0
15.07.2018 01:00:00 16,5 11,8 12,8 20,9 21,6 17,9 6 3 10 6 NW 1017,7 35 0 0,0
15.07.2018 00:00:00 16,2 11,7 13,0 21,7 21,8 17,9 4 2 10 5 NW 1017,4 40 0 0,0
14.07.2018 23:00:00 17,7 11,4 14,1 22,5 22,0 17,9 6 3 10 6 NW 1017,2 40 0 0,0
14.07.2018 22:00:00 19,4 11,6 15,5 23,4 22,1 17,9 4 2 16 9 NW 1016,9 50 1 0,0
14.07.2018 21:00:00 22,0 10,5 19,8 24,3 22,0 17,9 8 4 20 11 NNW 1016,3 60 60 0,0
14.07.2018 20:00:00 23,8 10,6 23,5 25,0 21,9 17,9 10 6 26 14 NW 1016,0 55 60 0,0
14.07.2018 19:00:00 24,7 10,9 25,7 25,3 21,6 17,9 14 8 32 17 NNW 1015,7 55 60 0,0
14.07.2018 18:00:00 24,6 11,2 26,5 25,4 21,2 17,9 19 11 32 17 N 1015,8 50 60 0,0
14.07.2018 17:00:00 24,5 13,1 27,9 25,2 20,8 17,9 18 10 30 16 NNW 1016,0 45 51 0,0
14.07.2018 16:00:00 24,0 13,7 27,7 24,9 20,3 17,9 20 11 38 20 NNW 1016,6 40 34 0,0
14.07.2018 15:00:00 25,8 13,7 30,9 24,4 19,8 17,9 16 8 32 17 NNW 1016,7 45 54 0,0
14.07.2018 14:00:00 24,8 12,6 31,3 23,1 19,3 18,0 13 7 28 15 WNW 1017,0 40 48 0,0
14.07.2018 13:00:00 22,8 13,5 26,0 21,9 19,0 17,9 14 7 28 15 NNW 1017,9 30 42 0,0
14.07.2018 12:00:00 22,3 13,9 26,5 20,9 18,6 18,0 15 8 27 14 WNW 1018,2 25 39 0,0
14.07.2018 11:00:00 21,5 14,0 25,8 19,6 18,4 18,0 12 7 28 15 WNW 1018,5 23 58 0,0
14.07.2018 10:00:00 20,9 14,4 25,1 18,5 18,3 18,0 13 7 21 11 W 1018,5 18 51 0,0
14.07.2018 09:00:00 19,1 14,1 22,4 17,8 18,3 18,0 13 7 20 11 W 1018,6 16 60 0,0
14.07.2018 08:00:00 18,0 13,7 20,8 17,2 18,4 18,0 11 6 18 10 W 1018,6 17 60 0,0
14.07.2018 07:00:00 16,3 13,2 17,1 16,9 18,6 18,0 7 4 12 7 W 1018,4 20 60 0,0
14.07.2018 06:00:00 14,6 11,7 12,5 17,0 18,8 18,0 4 2 9 5 WZW 1018,5 55 1 0,0
14.07.2018 05:00:00 14,2 11,7 11,6 17,3 19,0 18,0 6 3 9 5 ZW 1018,5 40 0 0,0
14.07.2018 04:00:00 14,2 12,1 12,0 17,7 19,3 18,0 7 4 12 6 ZW 1018,4 35 0 0,0
14.07.2018 03:00:00 14,6 12,6 12,9 18,1 19,5 18,0 9 5 12 6 WZW 1018,2 40 0 0,0
14.07.2018 02:00:00 14,5 13,1 12,5 18,5 19,7 18,0 8 5 14 8 ZW 1018,2 40 0 0,0
14.07.2018 01:00:00 15,7 13,4 13,8 19,0 19,9 18,1 9 5 13 7 WZW 1018,0 55 0 0,0
14.07.2018 00:00:00 16,6 13,0 13,8 19,6 20,0 18,1 6 3 10 6 ZW 1017,9 55 0 0,0
13.07.2018 23:00:00 18,5 13,1 15,5 20,2 20,2 18,1 5 3 28 15 O 1017,9 50 0 0,0
13.07.2018 22:00:00 20,0 13,0 19,4 20,8 20,2 18,1 29 15 47 25 NNO 1017,8 50 0 0,0
13.07.2018 21:00:00 22,6 11,8 19,5 21,5 20,2 18,1 7 4 19 10 NW 1016,2 60 39 0,0
13.07.2018 20:00:00 24,7 11,2 23,4 22,0 20,1 18,1 10 5 25 13 NW 1015,4 60 60 0,0
13.07.2018 19:00:00 25,3 12,2 26,1 22,0 19,9 18,1 15 8 28 15 WNW 1015,3 60 46 0,0
13.07.2018 18:00:00 25,4 13,3 26,8 22,0 19,7 18,1 16 9 33 18 W 1015,4 50 49 0,0
13.07.2018 17:00:00 25,8 11,0 27,9 21,5 19,5 18,2 14 8 38 20 NW 1015,6 45 59 0,0
13.07.2018 16:00:00 24,0 11,9 24,7 21,4 19,2 18,2 17 9 39 21 WNW 1015,9 32 23 0,0
13.07.2018 15:00:00 24,0 12,7 26,0 21,3 18,9 18,2 16 9 37 20 NW 1016,1 32 40 0,0

tt = temperatuur
td = dauwpunt
tt 5cm = temperatuur 5cm
tt -5cm = temperatuur -5cm
tt -20cm = temperatuur -20cm
tt -100cm = temperatuur -100cm
ff = windsnelheid
fx = windstoten
dd = windrichting
ppp = luchtdruk
vv = zicht
sd = Zonneschijnduur
rr = neerslag

Weerstations in de omgeving